Location: Ajisawe
(8.4333°N, 4.3833°E)
Time: 08:03:35
(UTC+00:00)

Explorer 11/Cluster Stage 4 - Visible Passes

Search period start: 20 April 2021 00:00
Search period end: 30 April 2021 00:00
Orbit: 467 x 1257 km, 28.8° (Epoch: 19 April)

Date Brightness Start Highest point End Pass type
(mag) Time Alt. Az. Time Alt. Az. Time Alt. Az.
20 Apr 7.4 04:49:29 11° WNW 04:51:55 19° NNW 04:54:42 10° NNE visible
21 Apr 7.7 04:39:18 11° NW 04:41:08 15° NNW 04:43:24 10° NNE visible
22 Apr 7.8 04:29:04 11° NW 04:30:20 12° NNW 04:31:57 10° N visible
23 Apr 8.1 04:19:10 10° NNW 04:19:32 10° NNW 04:19:55 10° NNW visible
